Year,Month,Day,Hour,Minute,Value (Times are PST for temperature in C)
2015,04,26,00,00,5.70
2015,04,26,00,01,5.70
2015,04,26,00,02,5.70
2015,04,26,00,03,5.70
2015,04,26,00,04,5.70
2015,04,26,00,05,5.70
2015,04,26,00,06,5.70
2015,04,26,00,07,5.70
2015,04,26,00,08,5.70
2015,04,26,00,09,5.60
2015,04,26,00,10,5.60
2015,04,26,00,11,5.60
2015,04,26,00,12,5.60
2015,04,26,00,13,5.60
2015,04,26,00,14,5.60
2015,04,26,00,15,5.60
2015,04,26,00,16,5.60
2015,04,26,00,17,5.60
2015,04,26,00,18,5.60
2015,04,26,00,19,5.60
2015,04,26,00,20,5.60
2015,04,26,00,21,5.60
2015,04,26,00,22,5.60
2015,04,26,00,23,5.60
2015,04,26,00,24,5.60
2015,04,26,00,25,5.60
2015,04,26,00,26,5.60
2015,04,26,00,27,5.60
2015,04,26,00,28,5.60
2015,04,26,00,29,5.60
2015,04,26,00,30,5.60
2015,04,26,00,31,5.60
2015,04,26,00,32,5.60
2015,04,26,00,33,5.60
2015,04,26,00,34,5.60
2015,04,26,00,35,5.60
2015,04,26,00,36,5.60
2015,04,26,00,37,5.60
2015,04,26,00,38,5.60
2015,04,26,00,39,5.60
2015,04,26,00,40,5.60
2015,04,26,00,41,5.60
2015,04,26,00,42,5.60
2015,04,26,00,43,5.60
2015,04,26,00,44,5.60
2015,04,26,00,45,5.60
2015,04,26,00,46,5.60
2015,04,26,00,47,5.60
2015,04,26,00,48,5.60
2015,04,26,00,49,5.60
2015,04,26,00,50,5.60
2015,04,26,00,51,5.60
2015,04,26,00,52,5.60
2015,04,26,00,53,5.50
2015,04,26,00,54,5.60
2015,04,26,00,55,5.60
2015,04,26,00,56,5.60
2015,04,26,00,57,5.60
2015,04,26,00,58,5.60
2015,04,26,00,59,5.60
2015,04,26,01,00,5.60
2015,04,26,01,01,5.60
2015,04,26,01,02,5.60
2015,04,26,01,03,5.60
2015,04,26,01,04,5.60
2015,04,26,01,05,5.60
2015,04,26,01,06,5.60
2015,04,26,01,07,5.60
2015,04,26,01,08,5.60
2015,04,26,01,09,5.60
2015,04,26,01,10,5.60
2015,04,26,01,11,5.60
2015,04,26,01,12,5.60
2015,04,26,01,13,5.60
2015,04,26,01,14,5.60
2015,04,26,01,15,5.70
2015,04,26,01,16,5.70
2015,04,26,01,17,5.70
2015,04,26,01,18,5.70
2015,04,26,01,19,5.70
2015,04,26,01,20,5.70
2015,04,26,01,21,5.70
2015,04,26,01,22,5.80
2015,04,26,01,23,5.80
2015,04,26,01,24,5.80
2015,04,26,01,25,5.80
2015,04,26,01,26,5.80
2015,04,26,01,27,5.80
2015,04,26,01,28,5.80
2015,04,26,01,29,5.80
2015,04,26,01,30,5.80
2015,04,26,01,31,5.90
2015,04,26,01,32,5.90
2015,04,26,01,33,5.90
2015,04,26,01,34,5.90
2015,04,26,01,35,5.90
2015,04,26,01,36,5.90
2015,04,26,01,37,5.90
2015,04,26,01,38,5.90
2015,04,26,01,39,5.90
2015,04,26,01,40,5.90
2015,04,26,01,41,5.90
2015,04,26,01,42,5.90
2015,04,26,01,43,5.90
2015,04,26,01,44,5.90
2015,04,26,01,45,5.90
2015,04,26,01,46,5.90
2015,04,26,01,47,5.90
2015,04,26,01,48,5.90
2015,04,26,01,49,5.90
2015,04,26,01,50,5.90
2015,04,26,01,51,5.90
2015,04,26,01,52,5.90
2015,04,26,01,53,5.90
2015,04,26,01,54,6.00
2015,04,26,01,55,6.00
2015,04,26,01,56,6.00
2015,04,26,01,57,6.00
2015,04,26,01,58,6.00
2015,04,26,01,59,6.10
2015,04,26,02,00,6.10
2015,04,26,02,01,6.10
2015,04,26,02,02,6.20
2015,04,26,02,03,6.20
2015,04,26,02,04,6.20
2015,04,26,02,05,6.20
2015,04,26,02,06,6.20
2015,04,26,02,07,6.20
2015,04,26,02,08,6.30
2015,04,26,02,09,6.40
2015,04,26,02,10,6.50
2015,04,26,02,11,6.50
2015,04,26,02,12,6.60
2015,04,26,02,13,6.80
2015,04,26,02,14,6.80
2015,04,26,02,15,6.80
2015,04,26,02,16,6.80
2015,04,26,02,17,6.90
2015,04,26,02,18,6.90
2015,04,26,02,19,7.00
2015,04,26,02,20,7.10
2015,04,26,02,21,7.30
2015,04,26,02,22,7.50
2015,04,26,02,23,7.80
2015,04,26,02,24,8.00
2015,04,26,02,25,8.20
2015,04,26,02,26,8.30
2015,04,26,02,27,8.50
2015,04,26,02,28,8.70
2015,04,26,02,29,8.90
2015,04,26,02,30,9.00
2015,04,26,02,31,9.10
2015,04,26,02,32,9.20
2015,04,26,02,33,9.20
2015,04,26,02,34,9.30
2015,04,26,02,35,9.30
2015,04,26,02,36,9.30
2015,04,26,02,37,9.30
2015,04,26,02,38,9.30
2015,04,26,02,39,9.30
2015,04,26,02,40,9.30
2015,04,26,02,41,9.30
2015,04,26,02,42,9.30
2015,04,26,02,43,9.20
2015,04,26,02,44,9.20
2015,04,26,02,45,9.20
2015,04,26,02,46,9.20
2015,04,26,02,47,9.10
2015,04,26,02,48,9.10
2015,04,26,02,49,9.10
2015,04,26,02,50,9.10
2015,04,26,02,51,9.10
2015,04,26,02,52,9.10
2015,04,26,02,53,9.20
2015,04,26,02,54,9.20
2015,04,26,02,55,9.20
2015,04,26,02,56,9.30
2015,04,26,02,57,9.30
2015,04,26,02,58,9.30
2015,04,26,02,59,9.30
2015,04,26,03,00,9.30
2015,04,26,03,01,9.30
2015,04,26,03,02,9.30
2015,04,26,03,03,9.30
2015,04,26,03,04,9.30
2015,04,26,03,05,9.40
2015,04,26,03,06,9.40
2015,04,26,03,07,9.40
2015,04,26,03,08,9.50
2015,04,26,03,09,9.50
2015,04,26,03,10,9.60
2015,04,26,03,11,9.60
2015,04,26,03,12,9.60
2015,04,26,03,13,9.60
2015,04,26,03,14,9.70
2015,04,26,03,15,9.70
2015,04,26,03,16,9.70
2015,04,26,03,17,9.70
2015,04,26,03,18,9.70
2015,04,26,03,19,9.70
2015,04,26,03,20,9.70
2015,04,26,03,21,9.70
2015,04,26,03,22,9.70
2015,04,26,03,23,9.70
2015,04,26,03,24,9.70
2015,04,26,03,25,9.70
2015,04,26,03,26,9.70
2015,04,26,03,27,9.70
2015,04,26,03,28,9.70
2015,04,26,03,29,9.60
2015,04,26,03,30,9.60
2015,04,26,03,31,9.70
2015,04,26,03,32,9.70
2015,04,26,03,33,9.70
2015,04,26,03,34,9.70
2015,04,26,03,35,9.70
2015,04,26,03,36,9.70
2015,04,26,03,37,9.70
2015,04,26,03,38,9.70
2015,04,26,03,39,9.70
2015,04,26,03,40,9.70
2015,04,26,03,41,9.70
2015,04,26,03,42,9.70
2015,04,26,03,43,9.80
2015,04,26,03,44,9.80
2015,04,26,03,45,9.80
2015,04,26,03,46,9.80
2015,04,26,03,47,9.80
2015,04,26,03,48,9.80
2015,04,26,03,49,9.80
2015,04,26,03,50,9.80
2015,04,26,03,51,9.80
2015,04,26,03,52,9.80
2015,04,26,03,53,9.80
2015,04,26,03,54,9.80
2015,04,26,03,55,9.90
2015,04,26,03,56,9.90
2015,04,26,03,57,9.90
2015,04,26,03,58,9.90
2015,04,26,03,59,9.90
2015,04,26,04,00,9.90
2015,04,26,04,01,9.90
2015,04,26,04,02,9.90
2015,04,26,04,03,9.80
2015,04,26,04,04,9.80
2015,04,26,04,05,9.80
2015,04,26,04,06,9.80
2015,04,26,04,07,9.80
2015,04,26,04,08,9.80
2015,04,26,04,09,9.80
2015,04,26,04,10,9.80
2015,04,26,04,11,9.80
2015,04,26,04,12,9.70
2015,04,26,04,13,9.70
2015,04,26,04,14,9.70
2015,04,26,04,15,9.70
2015,04,26,04,16,9.70
2015,04,26,04,17,9.70
2015,04,26,04,18,9.70
2015,04,26,04,19,9.70
2015,04,26,04,20,9.70
2015,04,26,04,21,9.70
2015,04,26,04,22,9.70
2015,04,26,04,23,9.60
2015,04,26,04,24,9.60
2015,04,26,04,25,9.60
2015,04,26,04,26,9.60
2015,04,26,04,27,9.60
2015,04,26,04,28,9.60
2015,04,26,04,29,9.60
2015,04,26,04,30,9.60
2015,04,26,04,31,9.60
2015,04,26,04,32,9.60
2015,04,26,04,33,9.60
2015,04,26,04,34,9.60
2015,04,26,04,35,9.60
2015,04,26,04,36,9.60
2015,04,26,04,37,9.60
2015,04,26,04,38,9.60
2015,04,26,04,39,9.60
2015,04,26,04,40,9.60
2015,04,26,04,41,9.60
2015,04,26,04,42,9.60
2015,04,26,04,43,9.60
2015,04,26,04,44,9.50
2015,04,26,04,45,9.50
2015,04,26,04,46,9.50
2015,04,26,04,47,9.50
2015,04,26,04,48,9.50
2015,04,26,04,49,9.50
2015,04,26,04,50,9.50
2015,04,26,04,51,9.50
2015,04,26,04,52,9.40
2015,04,26,04,53,9.40
2015,04,26,04,54,9.40
2015,04,26,04,55,9.40
2015,04,26,04,56,9.40
2015,04,26,04,57,9.40
2015,04,26,04,58,9.40
2015,04,26,04,59,9.40
2015,04,26,05,00,9.40
2015,04,26,05,01,9.40
2015,04,26,05,02,9.40
2015,04,26,05,03,9.40
2015,04,26,05,04,9.40
2015,04,26,05,05,9.40
2015,04,26,05,06,9.40
2015,04,26,05,07,9.40
2015,04,26,05,08,9.40
2015,04,26,05,09,9.40
2015,04,26,05,10,9.40
2015,04,26,05,11,9.40
2015,04,26,05,12,9.40
2015,04,26,05,13,9.40
2015,04,26,05,14,9.40
2015,04,26,05,15,9.40
2015,04,26,05,16,9.40
2015,04,26,05,17,9.40
2015,04,26,05,18,9.40
2015,04,26,05,19,9.40
2015,04,26,05,20,9.40
2015,04,26,05,21,9.40
2015,04,26,05,22,9.40
2015,04,26,05,23,9.40
2015,04,26,05,24,9.40
2015,04,26,05,25,9.40
2015,04,26,05,26,9.40
2015,04,26,05,27,9.40
2015,04,26,05,28,9.40
2015,04,26,05,29,9.40
2015,04,26,05,30,9.40
2015,04,26,05,31,9.40
2015,04,26,05,32,9.40
2015,04,26,05,33,9.30
2015,04,26,05,34,9.30
2015,04,26,05,35,9.30
2015,04,26,05,36,9.30
2015,04,26,05,37,9.30
2015,04,26,05,38,9.30
2015,04,26,05,39,9.30
2015,04,26,05,40,9.30
2015,04,26,05,41,9.30
2015,04,26,05,42,9.30
2015,04,26,05,43,9.30
2015,04,26,05,44,9.30
2015,04,26,05,45,9.30
2015,04,26,05,46,9.30
2015,04,26,05,47,9.30
2015,04,26,05,48,9.30
2015,04,26,05,49,9.30
2015,04,26,05,50,9.20
2015,04,26,05,51,9.20
2015,04,26,05,52,9.20
2015,04,26,05,53,9.20
2015,04,26,05,54,9.20
2015,04,26,05,55,9.20
2015,04,26,05,56,9.20
2015,04,26,05,57,9.20
2015,04,26,05,58,9.20
2015,04,26,05,59,9.20
2015,04,26,06,00,9.20
2015,04,26,06,01,9.20
2015,04,26,06,02,9.20
2015,04,26,06,03,9.20
2015,04,26,06,04,9.20
2015,04,26,06,05,9.20
2015,04,26,06,06,9.20
2015,04,26,06,07,9.20
2015,04,26,06,08,9.20
2015,04,26,06,09,9.20
2015,04,26,06,10,9.20
2015,04,26,06,11,9.20
2015,04,26,06,12,9.20
2015,04,26,06,13,9.30
2015,04,26,06,14,9.30
2015,04,26,06,15,9.30
2015,04,26,06,16,9.30
2015,04,26,06,17,9.30
2015,04,26,06,18,9.30
2015,04,26,06,19,9.30
2015,04,26,06,20,9.30
2015,04,26,06,21,9.40
2015,04,26,06,22,9.40
2015,04,26,06,23,9.40
2015,04,26,06,24,9.40
2015,04,26,06,25,9.40
2015,04,26,06,26,9.40
2015,04,26,06,27,9.40
2015,04,26,06,28,9.40
2015,04,26,06,29,9.40
2015,04,26,06,30,9.40
2015,04,26,06,31,9.40
2015,04,26,06,32,9.40
2015,04,26,06,33,9.40
2015,04,26,06,34,9.40
2015,04,26,06,35,9.40
2015,04,26,06,36,9.40
2015,04,26,06,37,9.40
2015,04,26,06,38,9.40
2015,04,26,06,39,9.40
2015,04,26,06,40,9.30
2015,04,26,06,41,9.30
2015,04,26,06,42,9.30
2015,04,26,06,43,9.30
2015,04,26,06,44,9.30
2015,04,26,06,45,9.30
2015,04,26,06,46,9.30
2015,04,26,06,47,9.30
2015,04,26,06,48,9.30
2015,04,26,06,49,9.20
2015,04,26,06,50,9.20
2015,04,26,06,51,9.20
2015,04,26,06,52,9.10
2015,04,26,06,53,9.10
2015,04,26,06,54,9.10
2015,04,26,06,55,9.10
2015,04,26,06,56,9.10
2015,04,26,06,57,9.10
2015,04,26,06,58,9.10
2015,04,26,06,59,9.10
2015,04,26,07,00,9.10
2015,04,26,07,01,9.10
2015,04,26,07,02,9.10
2015,04,26,07,03,9.10
2015,04,26,07,04,9.10
2015,04,26,07,05,9.10
2015,04,26,07,06,9.10
2015,04,26,07,07,9.10
2015,04,26,07,08,9.10
2015,04,26,07,09,9.10
2015,04,26,07,10,9.10
2015,04,26,07,11,9.10
2015,04,26,07,12,9.10
2015,04,26,07,13,9.10
2015,04,26,07,14,9.10
2015,04,26,07,15,9.10
2015,04,26,07,16,9.10
2015,04,26,07,17,9.10
2015,04,26,07,18,9.10
2015,04,26,07,19,9.10
2015,04,26,07,20,9.10
2015,04,26,07,21,9.10
2015,04,26,07,22,9.10
2015,04,26,07,23,9.10
2015,04,26,07,24,9.10
2015,04,26,07,25,9.10
2015,04,26,07,26,9.10
2015,04,26,07,27,9.10
2015,04,26,07,28,9.10
2015,04,26,07,29,9.10
2015,04,26,07,30,9.10
2015,04,26,07,31,9.10
2015,04,26,07,32,9.10
2015,04,26,07,33,9.10
2015,04,26,07,34,9.10
2015,04,26,07,35,9.10
2015,04,26,07,36,9.10
2015,04,26,07,37,9.10
2015,04,26,07,38,9.10
2015,04,26,07,39,9.10
2015,04,26,07,40,9.10
2015,04,26,07,41,9.10
2015,04,26,07,42,9.10
2015,04,26,07,43,9.10
2015,04,26,07,44,9.10
2015,04,26,07,45,9.10
2015,04,26,07,46,9.10
2015,04,26,07,47,9.10
2015,04,26,07,48,9.10
2015,04,26,07,49,9.10
2015,04,26,07,50,9.10
2015,04,26,07,51,9.10
2015,04,26,07,52,9.10
2015,04,26,07,53,9.10
2015,04,26,07,54,9.10
2015,04,26,07,55,9.20
2015,04,26,07,56,9.20
2015,04,26,07,57,9.20
2015,04,26,07,58,9.20
2015,04,26,07,59,9.20
2015,04,26,08,00,9.20
2015,04,26,08,01,9.20
2015,04,26,08,02,9.20
2015,04,26,08,03,9.20
2015,04,26,08,04,9.20
2015,04,26,08,05,9.20
2015,04,26,08,06,9.20
2015,04,26,08,07,9.20
2015,04,26,08,08,9.20
2015,04,26,08,09,9.20
2015,04,26,08,10,9.20
2015,04,26,08,11,9.20
2015,04,26,08,12,9.20
2015,04,26,08,13,9.20
2015,04,26,08,14,9.20
2015,04,26,08,15,9.20
2015,04,26,08,16,9.30
2015,04,26,08,17,9.30
2015,04,26,08,18,9.30
2015,04,26,08,19,9.30
2015,04,26,08,20,9.30
2015,04,26,08,21,9.30
2015,04,26,08,22,9.30
2015,04,26,08,23,9.30
2015,04,26,08,24,9.30
2015,04,26,08,25,9.30
2015,04,26,08,26,9.30
2015,04,26,08,27,9.30
2015,04,26,08,28,9.40
2015,04,26,08,29,9.40
2015,04,26,08,30,9.40
2015,04,26,08,31,9.40
2015,04,26,08,32,9.40
2015,04,26,08,33,9.40
2015,04,26,08,34,9.40
2015,04,26,08,35,9.40
2015,04,26,08,36,9.40
2015,04,26,08,37,9.50
2015,04,26,08,38,9.50
2015,04,26,08,39,9.50
2015,04,26,08,40,9.50
2015,04,26,08,41,9.50
2015,04,26,08,42,9.60
2015,04,26,08,43,9.60
2015,04,26,08,44,9.60
2015,04,26,08,45,9.60
2015,04,26,08,46,9.70
2015,04,26,08,47,9.70
2015,04,26,08,48,9.70
2015,04,26,08,49,9.70
2015,04,26,08,50,9.70
2015,04,26,08,51,9.80
2015,04,26,08,52,9.80
2015,04,26,08,53,9.80
2015,04,26,08,54,9.80
2015,04,26,08,55,9.80
2015,04,26,08,56,9.80
2015,04,26,08,57,9.80
2015,04,26,08,58,9.80
2015,04,26,08,59,9.80
2015,04,26,09,00,9.80
2015,04,26,09,01,9.80
2015,04,26,09,02,9.80
2015,04,26,09,03,9.90
2015,04,26,09,04,9.90
2015,04,26,09,05,9.90
2015,04,26,09,06,9.90
2015,04,26,09,07,9.90
2015,04,26,09,08,9.90
2015,04,26,09,09,9.90
2015,04,26,09,10,9.90
2015,04,26,09,11,9.90
2015,04,26,09,12,9.90
2015,04,26,09,13,9.90
2015,04,26,09,14,9.90
2015,04,26,09,15,9.90
2015,04,26,09,16,9.90
2015,04,26,09,17,9.90
2015,04,26,09,18,10.00
2015,04,26,09,19,10.00
2015,04,26,09,20,10.00
2015,04,26,09,21,10.00
2015,04,26,09,22,9.90
2015,04,26,09,23,9.90
2015,04,26,09,24,10.00
2015,04,26,09,25,10.00
2015,04,26,09,26,10.00
2015,04,26,09,27,10.00
2015,04,26,09,28,10.00
2015,04,26,09,29,10.10
2015,04,26,09,30,10.10
2015,04,26,09,31,10.10
2015,04,26,09,32,10.10
2015,04,26,09,33,10.10
2015,04,26,09,34,10.10
2015,04,26,09,35,10.10
2015,04,26,09,36,10.10
2015,04,26,09,37,10.10
2015,04,26,09,38,10.10
2015,04,26,09,39,10.10
2015,04,26,09,40,10.10
2015,04,26,09,41,10.10
2015,04,26,09,42,10.10
2015,04,26,09,43,10.10
2015,04,26,09,44,10.20
2015,04,26,09,45,10.20
2015,04,26,09,46,10.20
2015,04,26,09,47,10.20
2015,04,26,09,48,10.20
2015,04,26,09,49,10.20
2015,04,26,09,50,10.20
2015,04,26,09,51,10.20
2015,04,26,09,52,10.20
2015,04,26,09,53,10.20
2015,04,26,09,54,10.20
2015,04,26,09,55,10.10
2015,04,26,09,56,10.10
2015,04,26,09,57,10.10
2015,04,26,09,58,10.10
2015,04,26,09,59,10.10
2015,04,26,10,00,10.10
2015,04,26,10,01,10.10
2015,04,26,10,02,10.20
2015,04,26,10,03,10.20
2015,04,26,10,04,10.20
2015,04,26,10,05,10.20
2015,04,26,10,06,10.20
2015,04,26,10,07,10.30
2015,04,26,10,08,10.30
2015,04,26,10,09,10.30
2015,04,26,10,10,10.30
2015,04,26,10,11,10.30
2015,04,26,10,12,10.30
2015,04,26,10,13,10.30
2015,04,26,10,14,10.30
2015,04,26,10,15,10.30
2015,04,26,10,16,10.40
2015,04,26,10,17,10.40
2015,04,26,10,18,10.50
2015,04,26,10,19,10.50
2015,04,26,10,20,10.60
2015,04,26,10,21,10.60
2015,04,26,10,22,10.60
2015,04,26,10,23,10.70
2015,04,26,10,24,10.60
2015,04,26,10,25,10.60
2015,04,26,10,26,10.60
2015,04,26,10,27,10.60
2015,04,26,10,28,10.60
2015,04,26,10,29,10.60
2015,04,26,10,30,10.60
2015,04,26,10,31,10.50
2015,04,26,10,32,10.60
2015,04,26,10,33,10.50
2015,04,26,10,34,10.40
2015,04,26,10,35,10.40
2015,04,26,10,36,10.40
2015,04,26,10,37,10.40
2015,04,26,10,38,10.40
2015,04,26,10,39,10.40
2015,04,26,10,40,10.40
2015,04,26,10,41,10.40
2015,04,26,10,42,10.30
2015,04,26,10,43,10.30
2015,04,26,10,44,10.30
2015,04,26,10,45,10.30
2015,04,26,10,46,10.30
2015,04,26,10,47,10.30
2015,04,26,10,48,10.30
2015,04,26,10,49,10.30
2015,04,26,10,50,10.30
2015,04,26,10,51,10.30
2015,04,26,10,52,10.40
2015,04,26,10,53,10.30
2015,04,26,10,54,10.40
2015,04,26,10,55,10.30
2015,04,26,10,56,10.30
2015,04,26,10,57,10.30
2015,04,26,10,58,10.30
2015,04,26,10,59,10.30
2015,04,26,11,00,10.40
2015,04,26,11,01,10.30
2015,04,26,11,02,10.30
2015,04,26,11,03,10.30
2015,04,26,11,04,10.30
2015,04,26,11,05,10.30
2015,04,26,11,06,10.40
2015,04,26,11,07,10.40
2015,04,26,11,08,10.40
2015,04,26,11,09,10.40
2015,04,26,11,10,10.40
2015,04,26,11,11,10.40
2015,04,26,11,12,10.40
2015,04,26,11,13,10.40
2015,04,26,11,14,10.40
2015,04,26,11,15,10.30
2015,04,26,11,16,10.30
2015,04,26,11,17,10.30
2015,04,26,11,18,10.30
2015,04,26,11,19,10.30
2015,04,26,11,20,10.30
2015,04,26,11,21,10.30
2015,04,26,11,22,10.30
2015,04,26,11,23,10.30
2015,04,26,11,24,10.30
2015,04,26,11,25,10.30
2015,04,26,11,26,10.40
2015,04,26,11,27,10.40
2015,04,26,11,28,10.40
2015,04,26,11,29,10.40
2015,04,26,11,30,10.50
2015,04,26,11,31,10.50
2015,04,26,11,32,10.50
2015,04,26,11,33,10.50
2015,04,26,11,34,10.50
2015,04,26,11,35,10.50
2015,04,26,11,36,10.50
2015,04,26,11,37,10.50
2015,04,26,11,38,10.50
2015,04,26,11,39,10.50
2015,04,26,11,40,10.50
2015,04,26,11,41,10.50
2015,04,26,11,42,10.40
2015,04,26,11,43,10.40
2015,04,26,11,44,10.40
2015,04,26,11,45,10.40
2015,04,26,11,46,10.40
2015,04,26,11,47,10.40
2015,04,26,11,48,10.40
2015,04,26,11,49,10.40
2015,04,26,11,50,10.40
2015,04,26,11,51,10.40
2015,04,26,11,52,10.40
2015,04,26,11,53,10.40
2015,04,26,11,54,10.40
2015,04,26,11,55,10.40
2015,04,26,11,56,10.40
2015,04,26,11,57,10.40
2015,04,26,11,58,10.40
2015,04,26,11,59,10.40
2015,04,26,12,00,10.40
2015,04,26,12,01,10.40
2015,04,26,12,02,10.40
2015,04,26,12,03,10.40
2015,04,26,12,04,10.40
2015,04,26,12,05,10.40
2015,04,26,12,06,10.40
2015,04,26,12,07,10.40
2015,04,26,12,08,10.40
2015,04,26,12,09,10.40
2015,04,26,12,10,10.40
2015,04,26,12,11,10.40
2015,04,26,12,12,10.40
2015,04,26,12,13,10.40
2015,04,26,12,14,10.40
2015,04,26,12,15,10.40
2015,04,26,12,16,10.50
2015,04,26,12,17,10.50
2015,04,26,12,18,10.50
2015,04,26,12,19,10.60
2015,04,26,12,20,10.60
2015,04,26,12,21,10.60
2015,04,26,12,22,10.60
2015,04,26,12,23,10.60
2015,04,26,12,24,10.70
2015,04,26,12,25,10.70
2015,04,26,12,26,10.70
2015,04,26,12,27,10.70
2015,04,26,12,28,10.70
2015,04,26,12,29,10.70
2015,04,26,12,30,10.70
2015,04,26,12,31,10.70
2015,04,26,12,32,10.70
2015,04,26,12,33,10.70
2015,04,26,12,34,10.70
2015,04,26,12,35,10.70
2015,04,26,12,36,10.70
2015,04,26,12,37,10.70
2015,04,26,12,38,10.70
2015,04,26,12,39,10.70
2015,04,26,12,40,10.70
2015,04,26,12,41,10.70
2015,04,26,12,42,10.70
2015,04,26,12,43,10.70
2015,04,26,12,44,10.70
2015,04,26,12,45,10.70
2015,04,26,12,46,10.80
2015,04,26,12,47,10.80
2015,04,26,12,48,10.80
2015,04,26,12,49,10.80
2015,04,26,12,50,10.80
2015,04,26,12,51,10.80
2015,04,26,12,52,10.80
2015,04,26,12,53,10.80
2015,04,26,12,54,10.80
2015,04,26,12,55,10.80
2015,04,26,12,56,10.80
2015,04,26,12,57,10.80
2015,04,26,12,58,10.70
2015,04,26,12,59,10.70
2015,04,26,13,00,10.70
2015,04,26,13,01,10.70
2015,04,26,13,02,10.70
2015,04,26,13,03,10.70
2015,04,26,13,04,10.70
2015,04,26,13,05,10.70
2015,04,26,13,06,10.70
2015,04,26,13,07,10.60
2015,04,26,13,08,10.60
2015,04,26,13,09,10.60
2015,04,26,13,10,10.60
2015,04,26,13,11,10.50
2015,04,26,13,12,10.50
2015,04,26,13,13,10.50
2015,04,26,13,14,10.50
2015,04,26,13,15,10.50
2015,04,26,13,16,10.50
2015,04,26,13,17,10.50
2015,04,26,13,18,10.50
2015,04,26,13,19,10.60
2015,04,26,13,20,10.50
2015,04,26,13,21,10.50
2015,04,26,13,22,10.50
2015,04,26,13,23,10.50
2015,04,26,13,24,10.50
2015,04,26,13,25,10.50
2015,04,26,13,26,10.50
2015,04,26,13,27,10.50
2015,04,26,13,28,10.50
2015,04,26,13,29,10.50
2015,04,26,13,30,10.60
2015,04,26,13,31,10.60
2015,04,26,13,32,10.60
2015,04,26,13,33,10.60
2015,04,26,13,34,10.60
2015,04,26,13,35,10.60
2015,04,26,13,36,10.60
2015,04,26,13,37,10.60
2015,04,26,13,38,10.70
2015,04,26,13,39,10.70
2015,04,26,13,40,10.70
2015,04,26,13,41,10.70
2015,04,26,13,42,10.80
2015,04,26,13,43,10.80
2015,04,26,13,44,10.80
2015,04,26,13,45,10.80
2015,04,26,13,46,10.80
2015,04,26,13,47,10.80
2015,04,26,13,48,10.80
2015,04,26,13,49,10.80
2015,04,26,13,50,10.80
2015,04,26,13,51,10.80
2015,04,26,13,52,10.90
2015,04,26,13,53,10.90
2015,04,26,13,54,10.90
2015,04,26,13,55,10.90
2015,04,26,13,56,10.90
2015,04,26,13,57,10.90
2015,04,26,13,58,10.90
2015,04,26,13,59,10.90
2015,04,26,14,00,10.90
2015,04,26,14,01,10.90
2015,04,26,14,02,10.90
2015,04,26,14,03,10.90
2015,04,26,14,04,10.90
2015,04,26,14,05,10.90
2015,04,26,14,06,10.90
2015,04,26,14,07,10.90
2015,04,26,14,08,10.90
2015,04,26,14,09,10.90
2015,04,26,14,10,10.90
2015,04,26,14,11,10.90
2015,04,26,14,12,10.90
2015,04,26,14,13,10.90
2015,04,26,14,14,11.00
2015,04,26,14,15,11.00
2015,04,26,14,16,11.00
2015,04,26,14,17,11.10
2015,04,26,14,18,11.10
2015,04,26,14,19,11.10
2015,04,26,14,20,11.10
2015,04,26,14,21,11.10
2015,04,26,14,22,11.10
2015,04,26,14,23,11.10
2015,04,26,14,24,11.10
2015,04,26,14,25,11.10
2015,04,26,14,26,11.10
2015,04,26,14,27,11.00
2015,04,26,14,28,11.00
2015,04,26,14,29,11.00
2015,04,26,14,30,11.00
2015,04,26,14,31,11.00
2015,04,26,14,32,11.00
2015,04,26,14,33,11.00
2015,04,26,14,34,11.00
2015,04,26,14,35,11.00
2015,04,26,14,36,11.00
2015,04,26,14,37,11.00
2015,04,26,14,38,11.00
2015,04,26,14,39,11.00
2015,04,26,14,40,11.00
2015,04,26,14,41,11.00
2015,04,26,14,42,11.10
2015,04,26,14,43,11.00
2015,04,26,14,44,11.00
2015,04,26,14,45,11.00
2015,04,26,14,46,11.00
2015,04,26,14,47,11.00
2015,04,26,14,48,11.00
2015,04,26,14,49,11.00
2015,04,26,14,50,11.10
2015,04,26,14,51,11.10
2015,04,26,14,52,11.10
2015,04,26,14,53,11.10
2015,04,26,14,54,11.10
2015,04,26,14,55,11.00
2015,04,26,14,56,11.00
2015,04,26,14,57,11.10
2015,04,26,14,58,11.10
2015,04,26,14,59,11.10
2015,04,26,15,00,11.10
2015,04,26,15,01,11.10
2015,04,26,15,02,11.10
2015,04,26,15,03,11.10
2015,04,26,15,04,11.10
2015,04,26,15,05,11.10
2015,04,26,15,06,11.10
2015,04,26,15,07,11.10
2015,04,26,15,08,11.10
2015,04,26,15,09,11.10
2015,04,26,15,10,11.10
2015,04,26,15,11,11.10
2015,04,26,15,12,11.10
2015,04,26,15,13,11.10
2015,04,26,15,14,11.10
2015,04,26,15,15,11.10
2015,04,26,15,16,11.10
2015,04,26,15,17,11.20
2015,04,26,15,18,11.20
2015,04,26,15,19,11.20
2015,04,26,15,20,11.20
2015,04,26,15,21,11.10
2015,04,26,15,22,11.10
2015,04,26,15,23,11.10
2015,04,26,15,24,11.10
2015,04,26,15,25,11.10
2015,04,26,15,26,11.10
2015,04,26,15,27,11.10
2015,04,26,15,28,11.10
2015,04,26,15,29,11.10
2015,04,26,15,30,11.10
2015,04,26,15,31,11.10
2015,04,26,15,32,11.10
2015,04,26,15,33,11.10
2015,04,26,15,34,11.10
2015,04,26,15,35,11.10
2015,04,26,15,36,11.10
2015,04,26,15,37,11.10
2015,04,26,15,38,11.10
2015,04,26,15,39,11.10
2015,04,26,15,40,11.10
2015,04,26,15,41,11.10
2015,04,26,15,42,11.10
2015,04,26,15,43,11.10
2015,04,26,15,44,11.10
2015,04,26,15,45,11.10
2015,04,26,15,46,11.10
2015,04,26,15,47,11.10
2015,04,26,15,48,11.10
2015,04,26,15,49,11.10
2015,04,26,15,50,11.10
2015,04,26,15,51,11.10
2015,04,26,15,52,11.10
2015,04,26,15,53,11.10
2015,04,26,15,54,11.10
2015,04,26,15,55,11.10
2015,04,26,15,56,11.10
2015,04,26,15,57,11.10
2015,04,26,15,58,11.10
2015,04,26,15,59,11.10
2015,04,26,16,00,11.10
2015,04,26,16,01,11.10
2015,04,26,16,02,11.10
2015,04,26,16,03,11.10
2015,04,26,16,04,11.10
2015,04,26,16,05,11.10
2015,04,26,16,06,11.10
2015,04,26,16,07,11.10
2015,04,26,16,08,11.10
2015,04,26,16,09,11.20
2015,04,26,16,10,11.20
2015,04,26,16,11,11.20
2015,04,26,16,12,11.20
2015,04,26,16,13,11.30
2015,04,26,16,14,11.30
2015,04,26,16,15,11.30
2015,04,26,16,16,11.30
2015,04,26,16,17,11.30
2015,04,26,16,18,11.40
2015,04,26,16,19,11.40
2015,04,26,16,20,11.40
2015,04,26,16,21,11.40
2015,04,26,16,22,11.40
2015,04,26,16,23,11.40
2015,04,26,16,24,11.40
2015,04,26,16,25,11.40
2015,04,26,16,26,11.40
2015,04,26,16,27,11.50
2015,04,26,16,28,11.50
2015,04,26,16,29,11.50
2015,04,26,16,30,11.50
2015,04,26,16,31,11.50
2015,04,26,16,32,11.50
2015,04,26,16,33,11.50
2015,04,26,16,34,11.50
2015,04,26,16,35,11.60
2015,04,26,16,36,11.50
2015,04,26,16,37,11.50
2015,04,26,16,38,11.50
2015,04,26,16,39,11.60
2015,04,26,16,40,11.60
2015,04,26,16,41,11.60
2015,04,26,16,42,11.60
2015,04,26,16,43,11.60
2015,04,26,16,44,11.60
2015,04,26,16,45,11.60
2015,04,26,16,46,11.60
2015,04,26,16,47,11.60
2015,04,26,16,48,11.50
2015,04,26,16,49,11.50
2015,04,26,16,50,11.50
2015,04,26,16,51,11.50
2015,04,26,16,52,11.50
2015,04,26,16,53,11.50
2015,04,26,16,54,11.50
2015,04,26,16,55,11.50
2015,04,26,16,56,11.50
2015,04,26,16,57,11.50
2015,04,26,16,58,11.50
2015,04,26,16,59,11.50
2015,04,26,17,00,11.50
2015,04,26,17,01,11.50
2015,04,26,17,02,11.50
2015,04,26,17,03,11.50
2015,04,26,17,04,11.60
2015,04,26,17,05,11.60
2015,04,26,17,06,11.60
2015,04,26,17,07,11.60
2015,04,26,17,08,11.50
2015,04,26,17,09,11.60
2015,04,26,17,10,11.60
2015,04,26,17,11,11.50
2015,04,26,17,12,11.50
2015,04,26,17,13,11.60
2015,04,26,17,14,11.60
2015,04,26,17,15,11.50
2015,04,26,17,16,11.50
2015,04,26,17,17,11.50
2015,04,26,17,18,11.50
2015,04,26,17,19,11.50
2015,04,26,17,20,11.50
2015,04,26,17,21,11.50
2015,04,26,17,22,11.50
2015,04,26,17,23,11.50
2015,04,26,17,24,11.50
2015,04,26,17,25,11.50
2015,04,26,17,26,11.50
2015,04,26,17,27,11.50
2015,04,26,17,28,11.50
2015,04,26,17,29,11.50
2015,04,26,17,30,11.60
2015,04,26,17,31,11.50
2015,04,26,17,32,11.50
2015,04,26,17,33,11.60
2015,04,26,17,34,11.50
2015,04,26,17,35,11.50
2015,04,26,17,36,11.50
2015,04,26,17,37,11.50
2015,04,26,17,38,11.50
2015,04,26,17,39,11.40
2015,04,26,17,40,11.40
2015,04,26,17,41,11.40
2015,04,26,17,42,11.40
2015,04,26,17,43,11.40